Flight Track Log - Related Links

Times and Time Zones

All times are in EDT time to prevent confusion due to time zone crossing. See the N2BG flight status page for this flight to view local times or setup timezone preferences in your user account.

Time Position Orientation Groundspeed Altitude Reporting Facility
EDT Latitude Longitude Course Direction KTS MPH feet Rate Location/Type
07:30PM 33.9617 -118.3489 59° Northeast 249 287 2,900  Level Los Angeles Center
07:31PM 34.0036 -118.2714 57° Northeast 275 316 5,300 2,565 Climbing Los Angeles Center
07:32PM 34.0508 -118.1967 53° Northeast 277 319 8,200 3,097 Climbing Los Angeles Center
07:33PM 34.1072 -118.1167 50° Northeast 310 357 11,700 1,839 Climbing Los Angeles Center
07:34PM 34.1833 -118.0517 35° Northeast 342 394 12,000 2,081 Climbing Los Angeles Center
07:36PM 34.2894 -118.0528 360° North 316 364 16,000 3,823 Climbing Los Angeles Center
07:37PM 34.3619 -117.9853 38° Northeast 354 407 19,900 3,919 Climbing Los Angeles Center
07:38PM 34.4133 -117.8731 61° Northeast 364 419 24,100 2,488 Climbing Los Angeles Center
07:39PM 34.4653 -117.7539 62° Northeast 400 460 25,000 439 Climbing Los Angeles Center
07:40PM 34.5242 -117.6153 63° Northeast 460 529 25,000  Level Los Angeles Center
07:41PM 34.5825 -117.4792 62° Northeast 459 528 25,000  Level Los Angeles Center
07:42PM 34.6464 -117.3397 61° Northeast 478 550 25,000  Level Los Angeles Center
07:43PM 34.7294 -117.1708 59° Northeast 488 562 25,000  Level Los Angeles Center
07:44PM 34.7983 -117.0300 59° Northeast 490 564 25,000  Level Los Angeles Center
07:45PM 34.8667 -116.8911 59° Northeast 488 562 25,000 -435 Level Los Angeles Center
07:46PM 34.9319 -116.7556 60° Northeast 479 551 24,100 -484 Descending Los Angeles Center
07:47PM 34.9953 -116.6267 59° Northeast 463 533 24,000 -48 Descending Los Angeles Center
07:48PM 35.0706 -116.4697 60° Northeast 453 521 24,000 -194 Level Los Angeles Center
07:49PM 35.1456 -116.3450 54° Northeast 453 521 23,600 -1,016 Descending Los Angeles Center
07:50PM 35.2342 -116.2358 45° Northeast 454 522 21,900 -1,694 Descending Los Angeles Center
07:51PM 35.3208 -116.1261 46° Northeast 443 510 20,100 -1,597 Descending Los Angeles Center
07:52PM 35.4036 -116.0233 45° Northeast 433 498 18,600 -1,548 Descending Los Angeles Center
07:53PM 35.4825 -115.9208 47° Northeast 421 484 16,900 -1,780 Descending Los Angeles Center
07:54PM 35.5342 -115.8603 44° Northeast 418 481 15,900 -1,742 Descending Los Angeles Center
07:54PM 35.5739 -115.8047 49° Northeast 405 466 15,100 -1,527 Descending Los Angeles Center
07:54PM 35.6000 -115.7733 44° Northeast 385 443 14,500 -1,579 Descending Los Angeles Center
07:55PM 35.6644 -115.6919 46° Northeast 362 417 13,100 -1,376 Descending Los Angeles Center
07:56PM 35.7089 -115.6167 54° Northeast 298 343 12,000 -1,759 Descending Los Angeles Center
07:57PM 35.7533 -115.5231 60° Northeast 307 353 9,700 -1,967 Descending Los Angeles Center
07:58PM 35.8019 -115.4383 55° Northeast 306 352 8,000 -843 Descending Los Angeles Center
07:59PM 35.8653 -115.3808 36° Northeast 288 331 8,000 -733 Level Los Angeles Center
08:01PM 35.9492 -115.3311 26° Northeast 295 339 6,400 -1,263 Descending Los Angeles Center
08:02PM 36.0364 -115.2819 25° Northeast 300 345 5,200 -1,113 Descending Los Angeles Center
08:03PM 36.0750 -115.2403 41° Northeast 291 335 4,100 -1,016 Descending Los Angeles Center
08:04PM 36.0725 -115.1681 92° East 241 277 3,100 10,032 Descending Los Angeles Center
08:05PM 36.0736 -115.1114 89° East 226 260 25,000 20,857 Climbing Los Angeles Center

Login

Don't have an account? Register now (free) for customized features, flight alerts, and more!